We konden geen weer-waarchuwingen ophalen. Ga rechtstreeks naar de Meteoalarm site : www.meteoalarm.eu en controleer daar .



Onweer radar Meer informatie blitzortung!


Regen radar Meer informatie rain snow radar


Bezoek onze andere website:

Template documentation
and downloads

And another site



15 daagse weersverwachting Villach (AT)

  • Overzicht
  • Per uur
  • 15 dagen
  • Extra
  • Vergelijk
  • Kaarten
  • Dagkaart
  • Meer »
  • Info
  • Statistieken
  • Directe link
    Temp 6h Neerslag Wind  
 06:08     20:09    Daglengte: 14:01 Morgen
02:00
19°
 
2
08:00
21°
 
1
14:00
29°
 
2
20:00
24°
 
1
 06:09     20:07    Daglengte: 13:58 Vrijdag 19 Aug
02:00
19°
 
1
08:00
19°
23.3 mm
1
14:00
23°
14.6 mm
2
warningclass
20:00
19°
35.0 mm
0
 06:11     20:06    Daglengte: 13:55 Zaterdag 20 Aug
02:00
17°
36.1 mm
1
08:00
18°
 
1
14:00
24°
11.8 mm
2
20:00
20°
 
1
Locatie info
Region: Kärnten
Latitude: 46.6181°N
Longitude: 13.8493°E
494 masl
Postcode: 9500
Temp/Neerslag /Baro Onweer/Dauwpunt
    Temp Baro 1h Neerslag Dauwpunt Wind UV Bewolking  
 06:08     20:09    Daglengte: 14:01 Morgen
00:00
20°
1013.8 hPa   18.4°
2
Windvlaag: 3.1 m/s
45%
01:00
20°
1013.9 hPa   18.0°
2
Windvlaag: 2.3 m/s
48%
02:00
19°
1014.1 hPa   17.9°
2
Windvlaag: 1.9 m/s
45%
03:00
19°
1014.1 hPa   17.7°
2
Windvlaag: 1.3 m/s
44%
04:00
19°
1014.1 hPa   17.2°
2
Windvlaag: 1.6 m/s
33%
05:00
18°
1013.7 hPa   16.9°
2
Windvlaag: 2 m/s
42%
06:00
18°
1013.6 hPa   16.5°
2
Windvlaag: 1.7 m/s
41%
07:00
19°
1013.7 hPa   16.5°
1
Windvlaag: 1.3 m/s
35%
08:00
21°
1013.7 hPa   17.2°
1
Windvlaag: 0.7 m/s
35%
09:00
23°
1013.1 hPa   16.1°
1
Windvlaag: 0.8 m/s
39%
10:00
25°
1012.8 hPa   15.0°
1
Windvlaag: 2.1 m/s
48%
11:00
27°
1012.9 hPa
11%
14.3°
1
Windvlaag: 0.4 m/s
65%
12:00
28°
Voelt als: 28.1°
1012.4 hPa
14%
14.2°
2
Windvlaag: 4.3 m/s
66%
13:00
29°
Voelt als: 28.5°
1012.4 hPa
14%
14.4°
2
Windvlaag: 3.5 m/s
42%
14:00
29°
Voelt als: 28.9°
1012.5 hPa
37%
13.9°
2
Windvlaag: 2.1 m/s
67%
15:00
29°
Voelt als: 28.3°
1012.3 hPa
72%
12.8°
2
Windvlaag: 1.9 m/s
75%
16:00
28°
Voelt als: 27.6°
1012.1 hPa
76%
10.7°
3
Windvlaag: 2.4 m/s
75%
17:00
28°
Voelt als: 26.9°
1011.7 hPa
66%
9.0°
2
Windvlaag: 0.2 m/s
62%
18:00
27°
Voelt als: 26.6°
1011.5 hPa
12%
8.5°
3
Windvlaag: 3.9 m/s
29%
19:00
26°
1011.1 hPa
12%
10.8°
2
Windvlaag: 3.1 m/s
31%
20:00
24°
1011.3 hPa
14%
18.0°
1
Windvlaag: 1.4 m/s
57%
21:00
23°
1011.5 hPa
16%
16.2°
2
Windvlaag: 1.2 m/s
81%
22:00
22°
1011.8 hPa
15%
17.5°
1
Windvlaag: 2.2 m/s
71%
23:00
21°
1011.6 hPa
19%
17.1°
2
Windvlaag: 2.5 m/s
42%
 06:09     20:07    Daglengte: 13:58 Vrijdag 19 Aug
00:00
20°
1011.6 hPa
18%
16.2°
2
Windvlaag: 2.6 m/s
32%
01:00
19°
1011.5 hPa
14%
16.4°
1
Windvlaag: 2 m/s
48%
02:00
19°
1011.5 hPa
18%
15.8°
1
Windvlaag: 1.2 m/s
64%
03:00
19°
1011.4 hPa
32%
16.1°
1
Windvlaag: 1.8 m/s
80%
04:00
18°
1012.1 hPa 1.6 mm
82%
16.2°
2
Windvlaag: 4.3 m/s
86%
05:00
17°
1011.4 hPa 3.2 mm
82%
15.5°
1
Windvlaag: 4.3 m/s
80% warningclass
06:00
17°
1012.3 hPa 4.6 mm
82%
15.3°
2
Windvlaag: 1.4 m/s
86%
07:00
17°
1012.7 hPa 9.7 mm
82%
15.3°
1
Windvlaag: 3.8 m/s
86%
08:00
19°
1012.1 hPa 4.1 mm
79%
16.6°
1
Windvlaag: 3.3 m/s
62%
09:00
20°
1011.8 hPa
18%
15.7°
1
Windvlaag: -0.2 m/s
50%
10:00
21°
1011.7 hPa
76%
14.4°
2
Windvlaag: 0.6 m/s
82%
11:00
22°
1011.7 hPa
82%
14.2°
2
Windvlaag: 1.7 m/s
81%
12:00
23°
1011.4 hPa 4.3 mm
80%
13.7°
3
Windvlaag: 0.9 m/s
82%
13:00
24°
1011.2 hPa 4.3 mm
82%
13.4°
3
Windvlaag: 0.6 m/s
72%
14:00
23°
1011.4 hPa 5.9 mm
82%
12.9°
2
Windvlaag: 0.9 m/s
65% warningclass
15:00
23°
1011.4 hPa
78%
11.7°
2
Windvlaag: 1.3 m/s
47%
16:00
23°
1011.0 hPa
38%
10.2°
2
Windvlaag: -1.5 m/s
42%
17:00
21°
1010.6 hPa 10.4 mm
52%
19.2°
2
Windvlaag: -0.6 m/s
74% warningclass
18:00
20°
1010.5 hPa 12.2 mm
49%
18.1°
2
Windvlaag: 0.8 m/s
84%
19:00
20°
1010.9 hPa 12.3 mm
40%
17.5°
1
Windvlaag: 1.1 m/s
78%
20:00
19°
1010.6 hPa
33%
17.0°
0
Windvlaag: 0.7 m/s
51%
21:00
18°
1011.4 hPa 12.1 mm
22%
16.0°
1
Windvlaag: 1.3 m/s
70%
22:00
18°
1011.7 hPa 12.1 mm
21%
14.1°
1
Windvlaag: 1.2 m/s
68%
23:00
17°
1012.0 hPa 11.9 mm
21%
14.0°
1
Windvlaag: 1.8 m/s
69%
 06:11     20:06    Daglengte: 13:55 Zaterdag 20 Aug
00:00
18°
1011.9 hPa
21%
13.9°
1
Windvlaag: 2.2 m/s
67%
01:00
18°
1012.0 hPa
21%
13.0°
1
Windvlaag: 1.9 m/s
68%
02:00
17°
1011.9 hPa
21%
13.4°
1
Windvlaag: 1.5 m/s
70%
03:00
17°
1011.8 hPa
21%
13.7°
1
Windvlaag: 0.9 m/s
69%
04:00
16°
1011.7 hPa
21%
12.6°
1
Windvlaag: 0.7 m/s
70%
05:00
16°
1011.7 hPa
21%
11.9°
1
Windvlaag: 1.6 m/s
63%
06:00
16°
1011.8 hPa
21%
11.6°
1
Windvlaag: 1.8 m/s
50%
07:00
17°
1012.4 hPa
22%
13.0°
1
Windvlaag: 1.5 m/s
60%
08:00
18°
1012.8 hPa
24%
12.2°
1
Windvlaag: 1.7 m/s
66%
09:00
20°
1012.9 hPa
21%
13.2°
1
Windvlaag: 3.4 m/s
81%
10:00
21°
1013.1 hPa
21%
13.8°
2
Windvlaag: 3.7 m/s
91%
11:00
21°
1013.4 hPa 11.8 mm
21%
13.2°
2
Windvlaag: 3.5 m/s
80%
12:00
23°
1014.4 hPa
21%
12.4°
2
Windvlaag: 6.4 m/s
73%
13:00
24°
1014.2 hPa
21%
12.2°
2
Windvlaag: 5.2 m/s
62%
14:00
24°
1014.1 hPa
26%
12.3°
2
Windvlaag: 5.3 m/s
59%
15:00
24°
1013.7 hPa
23%
12.0°
3
Windvlaag: 5.8 m/s
63%
16:00
24°
1013.7 hPa
28%
11.8°
3
Windvlaag: 5.8 m/s
15%
17:00
24°
1013.4 hPa
67%
11.7°
3
Windvlaag: 5.7 m/s
13%
18:00
23°
1013.3 hPa
21%
12.2°
2
Windvlaag: 9.4 m/s
18%
19:00
22°
1013.6 hPa
21%
12.7°
1
Windvlaag: 7.5 m/s
20%
20:00
20°
1014.0 hPa
21%
13.9°
1
Windvlaag: 5.1 m/s
19%
21:00
20°
1012.4 hPa 35.0 mm
100%
14.1°
2
Windvlaag: 2.6 m/s
78%
22:00
19°
1012.1 hPa 35.0 mm
100%
13.8°
3
Windvlaag: 3 m/s
91%
23:00
20°
1012.2 hPa 35.0 mm
100%
13.6°
3
Windvlaag: 3.7 m/s
90%
Temp/Neerslag /Baro Onweer/Dauwpunt
    Temp Baro Neerslag Dauwpunt Wind Bewolking  
 06:08     20:09    Daglengte: 14:01 Morgen
02:00
19°
1014.1 hPa   17.9°
2
45%
05:00
18°
1013.7 hPa   16.9°
2
42%
08:00
21°
1013.7 hPa   17.2°
1
35%
11:00
27°
1012.9 hPa   14.3°
1
65%
14:00
29°
Voelt als: 28.9°
1012.5 hPa   13.9°
2
67%
17:00
28°
Voelt als: 26.9°
1011.7 hPa   9.0°
2
62%
20:00
24°
1011.3 hPa   18.0°
1
57%
23:00
21°
1011.6 hPa   17.1°
2
42%
 06:09     20:07    Daglengte: 13:58 Vrijdag 19 Aug
02:00
19°
1011.5 hPa   15.8°
1
64%
05:00
17°
1011.4 hPa 4.9 mm 15.5°
1
80% warningclass
08:00
19°
1012.1 hPa 18.4 mm 16.6°
1
62%
11:00
22°
1011.7 hPa   14.2°
2
81%
14:00
23°
1011.4 hPa 14.6 mm 12.9°
2
65% warningclass
17:00
21°
1010.6 hPa 10.4 mm 19.2°
2
74% warningclass
20:00
19°
1010.6 hPa 24.6 mm 17.0°
0
51%
23:00
17°
1012.0 hPa 36.1 mm 14.0°
1
69%
 06:11     20:06    Daglengte: 13:55 Zaterdag 20 Aug
02:00
17°
1011.9 hPa   13.4°
1
70%
05:00
16°
1011.7 hPa   11.9°
1
63%
08:00
18°
1012.8 hPa   12.2°
1
66%
11:00
21°
1013.4 hPa 11.8 mm 13.2°
2
80%
14:00
24°
1014.1 hPa   12.3°
2
59%
17:00
24°
1013.4 hPa   11.7°
3
13%
20:00
20°
1014.0 hPa   13.9°
1
19%
23:00
20°
1012.2 hPa 105.1 mm 13.6°
3
90%
 06:12     20:04    Daglengte: 13:52 Zondag 21 Aug
02:00
19°
1011.7 hPa 105.2 mm 14.1°
2
88%
05:00
15°
1015.3 hPa 18.6 mm 13.1°
1
0%
08:00
18°
1014.9 hPa 18.6 mm 13.5°
1
0%
11:00
24°
1013.3 hPa 18.6 mm 13.9°
1
1%
14:00
26°
1011.2 hPa 19.0 mm 14.7°
1
1%
17:00
22°
1010.9 hPa 19.9 mm 17.4°
1
1%
20:00
18°
1012.5 hPa 22.0 mm 16.5°
1
1%
23:00
15°
1014.3 hPa 22.3 mm 13.8°
2
1%
 06:13     20:02    Daglengte: 13:49 Maandag 22 Aug
02:00
14°
1014.3 hPa 22.3 mm 13.0°
2
1%
05:00
14°
1014.3 hPa 22.3 mm 12.3°
2
0%
08:00
16°
1014.7 hPa 22.3 mm 14.3°
1
1%
11:00
21°
1014.4 hPa 22.3 mm 12.0°
2
1%
14:00
25°
1013.2 hPa 22.3 mm 11.6°
2
1%
17:00
23°
1013.4 hPa 22.4 mm 15.1°
2
1%
20:00
17°
1015.4 hPa 22.6 mm 13.4°
1
1%
23:00
14°
1017.2 hPa 22.6 mm 13.1°
1
1%
 06:15     20:00    Daglengte: 13:45 Dinsdag 23 Aug
02:00
13°
1017.6 hPa 22.6 mm 12.5°
2
1%
05:00
13°
1017.7 hPa 22.6 mm 11.8°
2
1%
08:00
16°
1018.0 hPa 22.6 mm 12.6°
1
1%
11:00
22°
1017.0 hPa 22.6 mm 11.7°
1
1%
14:00
24°
1016.2 hPa 22.6 mm 10.9°
2
1%
17:00
24°
1015.9 hPa 22.6 mm 11.9°
2
1%
20:00
18°
1017.7 hPa 22.7 mm 14.1°
1
1%
23:00
16°
1018.8 hPa 22.7 mm 13.5°
1
1%
 06:16     19:58    Daglengte: 13:42 Woensdag 24 Aug
02:00
14°
1019.1 hPa 22.7 mm 13.5°
1
1%
05:00
14°
1018.7 hPa 22.7 mm 13.2°
1
1%
08:00
17°
1018.7 hPa 22.7 mm 14.0°
1
1%
11:00
23°
1017.6 hPa 22.7 mm 13.9°
1
1%
14:00
24°
1016.8 hPa 22.8 mm 14.7°
2
1%
17:00
24°
1016.9 hPa 22.9 mm 16.3°
2
1%
20:00
18°
1018.1 hPa 23.0 mm 16.1°
1
1%
23:00
17°
1019.4 hPa   15.5°
0
1%
 06:17     19:57    Daglengte: 13:40 Donderdag 25 Aug
02:00
16°
1019.6 hPa 46.1 mm 15.0°
1
0%
08:00
19°
1019.0 hPa 46.1 mm 16.3°
0
0%
14:00
27°
1017.1 hPa 46.6 mm 17.9°
2
0%
20:00
20°
1018.0 hPa 51.8 mm 17.4°
0
1%
 06:18     19:55    Daglengte: 13:37 Vrijdag 26 Aug
02:00
18°
1019.0 hPa 61.6 mm 16.5°
1
0%
08:00
20°
1018.4 hPa 61.8 mm 18.1°
1
1%
14:00
26°
1016.9 hPa 64.2 mm 20.1°
2
1%
20:00
20°
1017.4 hPa 68.7 mm 17.6°
1
1%
 06:20     19:53    Daglengte: 13:33 Zaterdag 27 Aug
02:00
18°
1018.7 hPa 74.0 mm 16.1°
1
0%
08:00
20°
1018.3 hPa 74.5 mm 17.8°
1
0%
14:00
27°
1017.4 hPa 77.2 mm 20.3°
1
1%
20:00
20°
1018.1 hPa 2.2 mm 15.9°
0
72%
 06:21     19:51    Daglengte: 13:30 Zondag 28 Aug
02:00
17°
1019.4 hPa 0.6 mm 14.8°
1
62%
08:00
18°
1019.4 hPa 0.3 mm 15.8°
1
44%
14:00
27°
1018.1 hPa 1.0 mm 16.1°
2
37%
20:00
20°
1018.6 hPa 2.7 mm 16.2°
0
73%
 06:22     19:49    Daglengte: 13:27 Maandag 29 Aug
02:00
17°
1019.9 hPa 1.2 mm 14.7°
1
55%
08:00
18°
1019.6 hPa 0.3 mm 15.7°
1
42%
14:00
26°
1018.1 hPa 1.6 mm 16.9°
1
42%
20:00
19°
1018.2 hPa 2.9 mm 16.0°
0
69%
 06:24     19:47    Daglengte: 13:23 Dinsdag 30 Aug
02:00
16°
1019.3 hPa 1.2 mm 14.4°
1
55%
08:00
17°
1019.0 hPa 0.8 mm 15.1°
1
48%
14:00
26°
1017.4 hPa 1.0 mm 15.6°
1
46%
20:00
19°
1017.3 hPa 3.1 mm 16.0°
0
75%
 06:25     19:45    Daglengte: 13:20 Woensdag 31 Aug
02:00
16°
1018.3 hPa 1.2 mm 14.5°
1
68%
08:00
17°
1018.0 hPa 0.4 mm 15.0°
1
52%
14:00
25°
1016.4 hPa 1.5 mm 15.5°
1
48%
20:00
18°
1016.6 hPa 3.3 mm 15.7°
0
71%
 06:26     19:43    Daglengte: 13:17 Donderdag 01 Sep
02:00
15°
1017.7 hPa 2.0 mm 14.0°
1
63%
08:00
16°
1017.7 hPa 1.2 mm 14.6°
1
51%
14:00
23°
1016.7 hPa 1.4 mm 15.1°
1
47%
20:00
17°
1017.2 hPa 2.8 mm 14.4°
0
67%
  CAPE Lifted Index Hail Supercell Tornado SRH 3km CL BTM PRES CL TOP PRES Swiss DWD icon SMHI TS
 06:08     20:09    Daglengte: 14:01 Morgen
00:00 259 J/kg -0.3 K 0 % 0 % 0 % 0 m²/s² 0 0 1.41 3
01:00 0 J/kg 0.7 K 0 % 0 % 0 % 0 m²/s² 0 0 2.89 3
02:00 0 J/kg 0.6 K 0 % 0 % 0 % 0 m²/s² 0 0 3.06 3
03:00 0 J/kg 0.2 K 0 % 0 % 0 % 0 m²/s² 0 0 2.9 3
04:00 0 J/kg -0.5 K 0 % 0 % 0 % 0 m²/s² 0 0 2.53 3
05:00 0 J/kg -1.1 K 0 % 0 % 0 % 0 m²/s² 0 0 2.02 3
06:00 1 J/kg -1.3 K 0 % 0 % 0 % 0 m²/s² 0 0 1.25 3
07:00 0 J/kg -1.0 K 0 % 0 % 0 % 0 m²/s² 0 0 1.34 3
08:00 0 J/kg -1.6 K 0 % 0 % 0 % 0 m²/s² 0 0 0.59 3
09:00 77 J/kg -2.6 K 0 % 0 % 0 % 0 m²/s² 0 0 -0.41 3
10:00 514 J/kg -2.2 K 0 % 0 % 0 % 0 m²/s² 0 0 -0.07 3
11:00 989 J/kg -3.5 K 0 % 0 % 0 % 0 m²/s² 0 0 -1.79 3
12:00 1262 J/kg -4.3 K 0 % 0 % 0 % 0 m²/s² 0 0 -2.44 3
13:00 1481 J/kg -4.3 K 0 % 0 % 0 % 0 m²/s² 0 0 -2.89 3
14:00 1633 J/kg -4.4 K 0 % 0 % 0 % 0 m²/s² 0 0 -2.75 3
15:00 1730 J/kg -5.3 K 0 % 0 % 0 % 0 m²/s² 0 0 -3.71 3
16:00 1516 J/kg -4.3 K 0 % 0 % 0 % 0 m²/s² 0 0 -3.22 61
17:00 1046 J/kg -4.5 K 0 % 0 % 0 % 0 m²/s² 0 0 -2.91 3
18:00 851 J/kg -2.7 K 0 % 0 % 0 % 0 m²/s² 0 0 -0.72 3
19:00 881 J/kg -3.8 K 0 % 0 % 0 % 0 m²/s² 0 0 -1.73 3
20:00 923 J/kg -4.8 K 0 % 0 % 0 % 0 m²/s² 0 0 -4.41 3
21:00 129 J/kg -1.2 K 0 % 0 % 0 % 0 m²/s² 0 0 1.2 3
22:00 86 J/kg -1.8 K 0 % 0 % 0 % 0 m²/s² 0 0 -0.75 3
23:00 3 J/kg -1.7 K 0 % 0 % 0 % 0 m²/s² 0 0 -1.43 3
 06:09     20:07    Daglengte: 13:58 Vrijdag 19 Aug
00:00 2 J/kg -0.6 K 0 % 0 % 0 % 0 m²/s² 0 0 -0.06 3
01:00 0 J/kg -2.2 K 0 % 0 % 0 % 0 m²/s² 0 0 -0.94 3
02:00 0 J/kg -3.8 K 0 % 0 % 0 % 0 m²/s² 0 0 -2.12 3
03:00 0 J/kg -4.3 K 0 % 0 % 0 % 0 m²/s² 0 0 -3.46 3
04:00 54 J/kg 0.3 K 0 % 0 % 0 % 0 m²/s² 0 0 0.69 61
05:00 0 J/kg -1.0 K 0 % 0 % 0 % 0 m²/s² 0 0 0.14 95
06:00 0 J/kg -3.6 K 0 % 0 % 0 % 0 m²/s² 0 0 -3.6 63
07:00 0 J/kg 1.4 K 0 % 0 % 0 % 0 m²/s² 0 0 1.94 65
08:00 0 J/kg 1.1 K 0 % 0 % 0 % 0 m²/s² 0 0 1.4 61
09:00 0 J/kg -4.0 K 0 % 0 % 0 % 0 m²/s² 0 0 -3.73 3
10:00 33 J/kg -3.3 K 0 % 0 % 0 % 0 m²/s² 0 0 -1.62 3
11:00 346 J/kg -3.6 K 0 % 0 % 0 % 0 m²/s² 0 0 -0.96 80
12:00 749 J/kg -4.2 K 0 % 0 % 0 % 0 m²/s² 0 0 -0.21 80
13:00 1192 J/kg -4.9 K 0 % 0 % 0 % 0 m²/s² 0 0 -0.49 80
14:00 1653 J/kg -6.8 K 0 % 0 % 0 % 0 m²/s² 0 0 -2.93 3
15:00 1792 J/kg -7.0 K 0 % 0 % 0 % 0 m²/s² 0 0 -3.49 3
16:00 1768 J/kg -6.7 K 0 % 0 % 0 % 0 m²/s² 0 0 -5.83 3
17:00 903 J/kg -3.3 K 0 % 0 % 0 % 0 m²/s² 0 0 -2.28 2
18:00 2 J/kg 0.6 K 0 % 0 % 0 % 0 m²/s² 0 0 1.05 3
19:00 0 J/kg -1.0 K 0 % 0 % 0 % 0 m²/s² 0 0 -0.43 3
20:00 0 J/kg -1.2 K 0 % 0 % 0 % 0 m²/s² 0 0 0.3 3
21:00 0 J/kg -1.2 K 0 % 0 % 0 % 0 m²/s² 0 0 1.71 3
22:00 0 J/kg -1.6 K 0 % 0 % 0 % 0 m²/s² 0 0 0.53 3
23:00 0 J/kg -2.3 K 0 % 0 % 0 % 0 m²/s² 0 0 -0.8 3
 06:11     20:06    Daglengte: 13:55 Zaterdag 20 Aug
00:00 0 J/kg -1.7 K 0 % 0 % 0 % 0 m²/s² 0 0 0.16 3
01:00 0 J/kg -1.6 K 0 % 0 % 0 % 0 m²/s² 0 0 -0.49 1
02:00 0 J/kg -0.4 K 0 % 0 % 0 % 0 m²/s² 0 0 1.22 2
03:00 0 J/kg 0.3 K 0 % 0 % 0 % 0 m²/s² 0 0 1.53 2
04:00 0 J/kg -0.1 K 0 % 0 % 0 % 0 m²/s² 0 0 0.86 2
05:00 0 J/kg -0.5 K 0 % 0 % 0 % 0 m²/s² 0 0 0.04 2
06:00 0 J/kg -0.2 K 0 % 0 % 0 % 0 m²/s² 0 0 0.52 2
07:00 0 J/kg -0.3 K 0 % 0 % 0 % 0 m²/s² 0 0 0.24 2
08:00 0 J/kg -0.1 K 0 % 0 % 0 % 0 m²/s² 0 0 0.08 3
09:00 110 J/kg -0.3 K 0 % 0 % 0 % 0 m²/s² 0 0 -0.03 3
10:00 234 J/kg -0.6 K 0 % 0 % 0 % 0 m²/s² 0 0 -0.21 3
11:00 226 J/kg -0.6 K 0 % 0 % 0 % 0 m²/s² 0 0 0.03 2
12:00 201 J/kg -0.6 K 0 % 0 % 0 % 0 m²/s² 0 0 -0.03 3
13:00 208 J/kg -0.8 K 0 % 0 % 0 % 0 m²/s² 0 0 0.13 3
14:00 157 J/kg -0.9 K 0 % 0 % 0 % 0 m²/s² 0 0 0.39 3
15:00 40 J/kg -0.3 K 0 % 0 % 0 % 0 m²/s² 0 0 1.08 3
16:00 42 J/kg -0.5 K 0 % 0 % 0 % 0 m²/s² 0 0 0.28 2
17:00 11 J/kg -0.2 K 0 % 0 % 0 % 0 m²/s² 0 0 0.61 2
18:00 36 J/kg -0.1 K 0 % 0 % 0 % 0 m²/s² 0 0 0.26 2
19:00 58 J/kg -0.5 K 0 % 0 % 0 % 0 m²/s² 0 0 -0.32 1
20:00 7 J/kg -0.3 K 0 % 0 % 0 % 0 m²/s² 0 0 -0.09 1
21:00 0 J/kg -0.7 K 0 % 0 % 0 % 0 m²/s² 0 0 -0.22
22:00 0 J/kg -0.4 K 0 % 0 % 0 % 0 m²/s² 0 0 -0.19
23:00 0 J/kg -0.5 K 0 % 0 % 0 % 0 m²/s² 0 0 -0.23
Temp Baro Wind Neerslag
  EWN Forecast EWN WRFDA DWD ICON FMI HIRLAM MET Norway GFS
 06:08     20:09    Daglengte: 14:01 Morgen
02:00 19.4° 1014.1 hPa 1.8 m/s 0.0 mm 20.0° 1012.3 hPa 3.0 m/s 0.0 mm 19.0° 1013.7 hPa 1.6 m/s -2.0 mm 18.7° 1016.5 hPa 1.4 m/s 0.0 mm 18.7° 1014.3 hPa 1.8 m/s
05:00 18.4° 1013.7 hPa 1.7 m/s 0.0 mm 18.8° 1011.9 hPa 2.9 m/s 0.0 mm 18.2° 1013.1 hPa 1.6 m/s 0.0 mm 16.8° 1016.2 hPa 1.2 m/s 0.0 mm 18.1° 1013.8 hPa 1.6 m/s
08:00 20.9° 1013.7 hPa 1.2 m/s 0.0 mm 23.5° 1012.1 hPa 1.4 m/s 0.0 mm 20.7° 1013.2 hPa 1.1 m/s 0.0 mm 19.0° 1015.9 hPa 1.1 m/s 0.0 mm 21.7° 1013.9 hPa 1.4 m/s
11:00 26.8° 1012.9 hPa 1.4 m/s 0.0 mm 28.0° 1012.3 hPa 1.6 m/s 0.0 mm 24.3° 1012.8 hPa 1.6 m/s 0.0 mm 28.6° 1013.9 hPa 0.8 m/s 0.0 mm 27.5° 1012.3 hPa 1.1 m/s
14:00 29.4° 1012.5 hPa 2.0 m/s 0.0 mm 30.2° 1011.2 hPa 3.2 m/s 0.0 mm 24.0° 1012.7 hPa 3.1 m/s 0.0 mm 32.8° 1013.1 hPa 1.6 m/s 0.0 mm 29.4° 1011.3 hPa 2.4 m/s
17:00 27.6° 1011.7 hPa 2.3 m/s 0.0 mm 28.3° 1011.0 hPa 3.4 m/s 2.4 mm 22.2° 1012.0 hPa 2.2 m/s 0.1 mm 33.2° 1011.7 hPa 2.6 m/s 0.0 mm 28.8° 1010.6 hPa 2.3 m/s
20:00 24.3° 1011.3 hPa 1.3 m/s 0.0 mm 24.6° 1011.5 hPa 2.7 m/s 3.9 mm 20.9° 1011.0 hPa 1.3 m/s 0.0 mm 25.9° 1013.0 hPa 0.4 m/s 0.0 mm 21.8° 1010.6 hPa 1.1 m/s
23:00 20.9° 1011.6 hPa 1.8 m/s 0.0 mm 21.1° 1011.2 hPa 5.9 m/s 6.3 mm 19.0° 1011.0 hPa 1.4 m/s 0.0 mm 21.1° 1013.9 hPa 0.6 m/s 0.0 mm 20.4° 1012.6 hPa 1.8 m/s
 06:09     20:07    Daglengte: 13:58 Vrijdag 19 Aug
02:00 19.0° 1011.5 hPa 1.4 m/s 0.0 mm 20.0° 1008.6 hPa 0.8 m/s 8.2 mm 18.1° 1010.8 hPa 1.3 m/s 0.0 mm 18.6° 1013.5 hPa 0.8 m/s 0.0 mm 19.3° 1012.9 hPa 2.4 m/s
05:00 17.4° 1011.4 hPa 1.4 m/s 4.9 mm 17.4° 1008.7 hPa 3.5 m/s 17.2 mm 17.2° 1010.4 hPa 1.3 m/s 3.3 mm 16.6° 1013.9 hPa 0.8 m/s 0.0 mm 18.1° 1012.8 hPa 2.7 m/s
08:00 19.0° 1012.1 hPa 1.2 m/s 18.4 mm 17.2° 1011.3 hPa 4.5 m/s 44.3 mm 17.1° 1011.5 hPa 1.4 m/s 19.4 mm 19.7° 1013.5 hPa 0.1 m/s 0.0 mm 19.8° 1012.0 hPa 0.5 m/s
11:00 22.1° 1011.7 hPa 2.1 m/s 0.0 mm 21.9° 1010.0 hPa 2.1 m/s 60.9 mm 17.7° 1011.6 hPa 1.3 m/s 0.8 mm 26.1° 1013.2 hPa 2.2 m/s 0.0 mm 22.7° 1011.4 hPa 1.4 m/s
14:00 22.9° 1011.4 hPa 2.2 m/s 14.6 mm 26.0° 1008.5 hPa 3.1 m/s 61.2 mm 18.2° 1011.7 hPa 0.7 m/s 0.9 mm 28.3° 1012.4 hPa 2.8 m/s 0.0 mm 26.9° 1009.9 hPa 1.1 m/s
17:00 20.7° 1010.6 hPa 1.9 m/s 10.4 mm 20.5° 1010.4 hPa 2.8 m/s 70.0 mm 20.3° 1011.2 hPa 0.4 m/s 0.0 mm 23.4° 1010.3 hPa 2.0 m/s
20:00 19.0° 1010.6 hPa 0.5 m/s 24.6 mm 17.6° 1010.0 hPa 0.4 m/s 103.5 mm 19.0° 1012.0 hPa 0.8 m/s 0.0 mm 18.4° 1011.6 hPa 0.8 m/s
23:00 16.9° 1012.0 hPa 1.4 m/s 36.1 mm 16.5° 1011.5 hPa 2.0 m/s 104.9 mm 16.3° 1013.4 hPa 0.8 m/s 0.0 mm 17.2° 1013.2 hPa 1.1 m/s
 06:11     20:06    Daglengte: 13:55 Zaterdag 20 Aug
02:00 17.1° 1011.9 hPa 1.2 m/s 0.0 mm 17.2° 1010.3 hPa 1.9 m/s 104.9 mm 15.3° 1013.9 hPa 0.9 m/s 0.0 mm 16.6° 1013.4 hPa 1.9 m/s
05:00 16.1° 1011.7 hPa 1.2 m/s 0.0 mm 16.0° 1010.9 hPa 1.1 m/s 104.9 mm 14.9° 1014.0 hPa 1.1 m/s 0.0 mm 16.5° 1014.0 hPa 2.0 m/s
08:00 18.4° 1012.8 hPa 1.3 m/s 0.0 mm 21.2° 1011.2 hPa 1.3 m/s 104.9 mm 16.4° 1015.3 hPa 0.8 m/s 0.0 mm 17.3° 1015.6 hPa 2.2 m/s
11:00 21.2° 1013.4 hPa 2.1 m/s 11.8 mm 23.6° 1011.9 hPa 3.2 m/s 105.0 mm 20.9° 1015.3 hPa 0.8 m/s 0.0 mm 17.6° 1016.9 hPa 1.3 m/s
14:00 23.9° 1014.1 hPa 2.2 m/s 0.0 mm 25.8° 1011.8 hPa 5.1 m/s 105.1 mm 23.5° 1014.6 hPa 1.5 m/s 0.0 mm 20.1° 1016.4 hPa 1.5 m/s
17:00 23.7° 1013.4 hPa 2.8 m/s 0.0 mm 25.4° 1011.1 hPa 5.6 m/s 105.1 mm 23.2° 1013.9 hPa 2.1 m/s 0.0 mm 22.8° 1014.7 hPa 1.3 m/s
20:00 20.1° 1014.0 hPa 1.2 m/s 0.0 mm 20.5° 1012.1 hPa 2.0 m/s 105.1 mm 20.0° 1014.5 hPa 1.0 m/s 0.0 mm 17.8° 1015.3 hPa 1.1 m/s
23:00 20.0° 1012.2 hPa 3.2 m/s 105.1 mm 20.0° 1012.2 hPa 3.2 m/s 105.1 mm 15.7° 1017.1 hPa 1.6 m/s
 06:12     20:04    Daglengte: 13:52 Zondag 21 Aug
02:00 18.7° 1011.7 hPa 2.1 m/s 105.2 mm 18.7° 1011.7 hPa 2.1 m/s 105.2 mm 15.0° 1016.0 hPa 1.5 m/s
05:00 15.1° 1015.3 hPa 1.1 m/s 18.6 mm 15.1° 1015.3 hPa 1.1 m/s 18.6 mm
08:00 18.1° 1014.9 hPa 1.2 m/s 18.6 mm 18.1° 1014.9 hPa 1.2 m/s 18.6 mm
11:00 24.3° 1013.3 hPa 0.7 m/s 18.6 mm 24.3° 1013.3 hPa 0.7 m/s 18.6 mm
14:00 26.3° 1011.2 hPa 0.7 m/s 19.0 mm 26.3° 1011.2 hPa 0.7 m/s 19.0 mm
17:00 22.2° 1010.9 hPa 0.9 m/s 19.9 mm 22.2° 1010.9 hPa 0.9 m/s 19.9 mm
20:00 17.8° 1012.5 hPa 1.0 m/s 22.0 mm 17.8° 1012.5 hPa 1.0 m/s 22.0 mm
23:00 14.9° 1014.3 hPa 1.7 m/s 22.3 mm 14.9° 1014.3 hPa 1.7 m/s 22.3 mm
 06:13     20:02    Daglengte: 13:49 Maandag 22 Aug
02:00 14.2° 1014.3 hPa 1.8 m/s 22.3 mm 14.2° 1014.3 hPa 1.8 m/s 22.3 mm
05:00 13.7° 1014.3 hPa 1.8 m/s 22.3 mm 13.7° 1014.3 hPa 1.8 m/s 22.3 mm
08:00 16.3° 1014.7 hPa 1.5 m/s 22.3 mm 16.3° 1014.7 hPa 1.5 m/s 22.3 mm
11:00 21.4° 1014.4 hPa 1.7 m/s 22.3 mm 21.4° 1014.4 hPa 1.7 m/s 22.3 mm
14:00 24.7° 1013.2 hPa 2.4 m/s 22.3 mm 24.7° 1013.2 hPa 2.4 m/s 22.3 mm
17:00 22.9° 1013.4 hPa 1.5 m/s 22.4 mm 22.9° 1013.4 hPa 1.5 m/s 22.4 mm
20:00 17.0° 1015.4 hPa 1.4 m/s 22.6 mm 17.0° 1015.4 hPa 1.4 m/s 22.6 mm
23:00 13.9° 1017.2 hPa 1.2 m/s 22.6 mm 13.9° 1017.2 hPa 1.2 m/s 22.6 mm
 06:15     20:00    Daglengte: 13:45 Dinsdag 23 Aug
02:00 13.3° 1017.6 hPa 1.6 m/s 22.6 mm 13.3° 1017.6 hPa 1.6 m/s 22.6 mm
05:00 12.8° 1017.7 hPa 1.6 m/s 22.6 mm 12.8° 1017.7 hPa 1.6 m/s 22.6 mm
08:00 15.9° 1018.0 hPa 1.3 m/s 22.6 mm 15.9° 1018.0 hPa 1.3 m/s 22.6 mm
11:00 21.9° 1017.0 hPa 1.4 m/s 22.6 mm 21.9° 1017.0 hPa 1.4 m/s 22.6 mm
14:00 23.9° 1016.2 hPa 2.0 m/s 22.6 mm 23.9° 1016.2 hPa 2.0 m/s 22.6 mm
17:00 23.5° 1015.9 hPa 1.7 m/s 22.6 mm 23.5° 1015.9 hPa 1.7 m/s 22.6 mm
20:00 17.9° 1017.7 hPa 1.3 m/s 22.7 mm 17.9° 1017.7 hPa 1.3 m/s 22.7 mm
23:00 15.5° 1018.8 hPa 1.1 m/s 22.7 mm 15.5° 1018.8 hPa 1.1 m/s 22.7 mm
 06:16     19:58    Daglengte: 13:42 Woensdag 24 Aug
02:00 14.5° 1019.1 hPa 0.9 m/s 22.7 mm 14.5° 1019.1 hPa 0.9 m/s 22.7 mm
05:00 14.0° 1018.7 hPa 1.1 m/s 22.7 mm 14.0° 1018.7 hPa 1.1 m/s 22.7 mm
08:00 17.1° 1018.7 hPa 0.5 m/s 22.7 mm 17.1° 1018.7 hPa 0.5 m/s 22.7 mm
11:00 23.1° 1017.6 hPa 1.4 m/s 22.7 mm 23.1° 1017.6 hPa 1.4 m/s 22.7 mm
14:00 24.3° 1016.8 hPa 2.2 m/s 22.8 mm 24.3° 1016.8 hPa 2.2 m/s 22.8 mm
17:00 23.6° 1016.9 hPa 1.8 m/s 22.9 mm 23.6° 1016.9 hPa 1.8 m/s 22.9 mm
20:00 18.3° 1018.1 hPa 0.6 m/s 23.0 mm 18.3° 1018.1 hPa 0.6 m/s 23.0 mm
23:00 16.8° 1019.4 hPa 0.4 m/s 23.0 mm 16.8° 1019.4 hPa 0.4 m/s 23.0 mm
 06:17     19:57    Daglengte: 13:40 Donderdag 25 Aug
02:00 15.8° 1019.6 hPa 0.7 m/s 23.0 mm 15.8° 1019.6 hPa 0.7 m/s 23.0 mm
08:00 18.7° 1019.0 hPa 0.5 m/s 23.0 mm 18.7° 1019.0 hPa 0.5 m/s 23.0 mm
14:00 26.7° 1017.1 hPa 1.6 m/s 23.6 mm 26.7° 1017.1 hPa 1.6 m/s 23.6 mm
20:00 19.8° 1018.0 hPa 0.3 m/s 27.1 mm 19.8° 1018.0 hPa 0.3 m/s 27.1 mm
 06:18     19:55    Daglengte: 13:37 Vrijdag 26 Aug
02:00 17.6° 1019.0 hPa 0.8 m/s 30.9 mm 17.6° 1019.0 hPa 0.8 m/s 30.9 mm
08:00 19.6° 1018.4 hPa 0.6 m/s 30.9 mm 19.6° 1018.4 hPa 0.6 m/s 30.9 mm
14:00 25.9° 1016.9 hPa 1.5 m/s 32.7 mm 25.9° 1016.9 hPa 1.5 m/s 32.7 mm
20:00 20.2° 1017.4 hPa 0.7 m/s 34.8 mm 20.2° 1017.4 hPa 0.7 m/s 34.8 mm
 06:20     19:53    Daglengte: 13:33 Zaterdag 27 Aug
02:00 17.6° 1018.7 hPa 0.9 m/s 37.3 mm 17.6° 1018.7 hPa 0.9 m/s 37.3 mm
08:00 20.0° 1018.3 hPa 0.6 m/s 37.3 mm 20.0° 1018.3 hPa 0.6 m/s 37.3 mm
14:00 27.1° 1017.4 hPa 1.0 m/s 39.4 mm 27.1° 1017.4 hPa 1.0 m/s 39.4 mm
20:00 19.8° 1018.1 hPa 0.4 m/s 2.2 mm
 06:21     19:51    Daglengte: 13:30 Zondag 28 Aug
02:00 16.6° 1019.4 hPa 1.1 m/s 0.6 mm
08:00 18.2° 1019.4 hPa 1.1 m/s 0.3 mm
14:00 27.0° 1018.1 hPa 1.5 m/s 1.0 mm
20:00 19.9° 1018.6 hPa 0.3 m/s 2.7 mm
 06:22     19:49    Daglengte: 13:27 Maandag 29 Aug
02:00 16.6° 1019.9 hPa 1.1 m/s 1.2 mm
08:00 17.9° 1019.6 hPa 1.1 m/s 0.3 mm
14:00 26.3° 1018.1 hPa 1.2 m/s 1.6 mm
20:00 19.3° 1018.2 hPa 0.2 m/s 2.9 mm
 06:24     19:47    Daglengte: 13:23 Dinsdag 30 Aug
02:00 16.1° 1019.3 hPa 1.3 m/s 1.2 mm
08:00 17.3° 1019.0 hPa 1.3 m/s 0.8 mm
14:00 25.8° 1017.4 hPa 1.1 m/s 1.0 mm
20:00 18.9° 1017.3 hPa 0.2 m/s 3.1 mm
 06:25     19:45    Daglengte: 13:20 Woensdag 31 Aug
02:00 16.0° 1018.3 hPa 1.2 m/s 1.2 mm
08:00 17.0° 1018.0 hPa 1.3 m/s 0.4 mm
14:00 25.1° 1016.4 hPa 1.2 m/s 1.5 mm
20:00 18.4° 1016.6 hPa 0.1 m/s 3.3 mm
 06:26     19:43    Daglengte: 13:17 Donderdag 01 Sep
02:00 15.3° 1017.7 hPa 1.1 m/s 2.0 mm
08:00 16.2° 1017.7 hPa 1.2 m/s 1.2 mm
14:00 23.1° 1016.7 hPa 0.8 m/s 1.4 mm
20:00 17.2° 1017.2 hPa 0.3 m/s 2.8 mm
FMI Hirlam - 7.5 km EWN WRFDA - 12 km DWD ICON - 7 km GFS - 25 km Basiskaart






























































Updatetijd (Europe/Amsterdam) Resolutie Lengte Stap
FMI Hirlam 19:15, 01:15, 07:15, 13:15 7.5 km 49h 1h
EWN WRFDA 22:30, 04:30, 10:30, 16:30 12 km 73h 1h
DWD ICON 23:45, 05:45, 11:45, 17:45 7 km 75h 1h
GFS 20:00, 02:00, 08:00, 14:00 25 km 237h 3h
30+ mm
25-30 mm
20-25 mm
15-20 mm
10-15 mm
6-10 mm
4-6 mm
2-4 mm
1-2 mm
0.5-1 mm
0.2-0.5 mm
0.1-0.2 mm
30+ mm
25-30 mm
20-25 mm
15-20 mm
10-15 mm
6-10 mm
4-6 mm
2-4 mm
1-2 mm
0.5-1 mm
0.2-0.5 mm
0.1-0.2 mm
Sneeuwval
Natte sneeuw
Hagel
Vorst
30+ mm
25-30 mm
20-25 mm
15-20 mm
10-15 mm
6-10 mm
4-6 mm
2-4 mm
1-2 mm
0.5-1 mm
0.2-0.5 mm
0.1-0.2 mm
Sneeuwval
Natte sneeuw
Hagel
Vorst
Onweer
50 mm
40 mm
30 mm
26 mm
22 mm
18 mm
14 mm
10 mm
9 mm
8 mm
7 mm
6 mm
5 mm
4.5 mm
4 mm
3.5 mm
3 mm
2.5 mm
2 mm
1.5 mm
1 mm
0.8 mm
0.6 mm
0.4 mm
0.2 mm
0.05 mm
35°
30°
25°
20°
15°
10°
-5°
-10°
-15°
-20°
-25°
-30°
-35°
33> m/s
29 m/s
25 m/s
21 m/s
17 m/s
14 m/s